| time (UTC) | temp F | wind direction | speed MPH | gust MPH | rain 1hr in | rain 24hr in | rain mn in | humidity % | barometer mb |
| 20260510233004 | 49 | 13 | 3.0 | 6.0 | 0.00 | 0.00 | 0.00 | 43 | 1020.5 |
| 20260510232004 | 50 | 35 | 4.0 | 8.0 | 0.00 | 0.00 | 0.00 | 42 | 1020.3 |
| 20260510231004 | 49 | 44 | 3.0 | 8.0 | 0.00 | 0.00 | 0.00 | 44 | 1020.2 |
| 20260510230004 | 49 | 341 | 2.0 | 10.0 | 0.00 | 0.00 | 0.00 | 45 | 1020.2 |
| 20260510225004 | 48 | 26 | 3.0 | 14.0 | 0.00 | 0.00 | 0.00 | 47 | 1020.1 |
| 20260510224004 | 50 | 21 | 3.0 | 8.0 | 0.00 | 0.00 | 0.00 | 46 | 1020.2 |
| 20260510223004 | 51 | 310 | 7.0 | 14.0 | 0.00 | 0.00 | 0.00 | 44 | 1020.1 |
| 20260510221004 | 50 | 356 | 4.0 | 8.0 | 0.00 | 0.00 | 0.00 | 48 | 1019.7 |
| 20260510220004 | 52 | 80 | 5.0 | 6.0 | 0.00 | 0.00 | 0.00 | 45 | 1019.7 |
| 20260510215004 | 52 | 325 | 4.0 | 10.0 | 0.00 | 0.00 | 0.00 | 46 | 1019.6 |
| 20260510213004 | 51 | 295 | 4.0 | 8.0 | 0.00 | 0.00 | 0.00 | 44 | 1019.4 |
| 20260510210004 | 51 | 340 | 3.0 | 13.0 | 0.00 | 0.00 | 0.00 | 45 | 1019.0 |
| 20260510205004 | 51 | 63 | 3.0 | 13.0 | 0.00 | 0.00 | 0.00 | 47 | 1018.9 |
| 20260510204004 | 50 | 339 | 3.0 | 10.0 | 0.00 | 0.00 | 0.00 | 44 | 1019.0 |
| 20260510203004 | 52 | 355 | 4.0 | 8.0 | 0.00 | 0.00 | 0.00 | 41 | 1019.0 |
| 20260510202004 | 49 | 335 | 3.0 | 12.0 | 0.00 | 0.00 | 0.00 | 45 | 1018.9 |
| 20260510201004 | 49 | 314 | 6.0 | 14.0 | 0.00 | 0.00 | 0.00 | 48 | 1019.0 |
| 20260510200003 | 51 | 1 | 2.0 | 10.0 | 0.00 | 0.00 | 0.00 | 48 | 1018.8 |
| 20260510194004 | 51 | 137 | 3.0 | 9.0 | 0.00 | 0.00 | 0.00 | 50 | 1018.6 |
| 20260510193005 | 49 | 333 | 3.0 | 13.0 | 0.00 | 0.00 | 0.00 | 52 | 1018.7 |
| 20260510192004 | 52 | 324 | 5.0 | 12.0 | 0.00 | 0.00 | 0.00 | 50 | 1018.5 |
| 20260510191004 | 51 | 215 | 5.0 | 10.0 | 0.00 | 0.00 | 0.00 | 51 | 1018.4 |
| 20260510190004 | 50 | 327 | 5.0 | 12.0 | 0.00 | 0.00 | 0.00 | 54 | 1018.5 |
| 20260510185004 | 47 | 46 | 3.0 | 12.0 | 0.00 | 0.00 | 0.00 | 59 | 1018.6 |
| 20260510184003 | 49 | 349 | 4.0 | 8.0 | 0.00 | 0.00 | 0.00 | 50 | 1018.2 |
| 20260510183004 | 51 | 38 | 3.0 | 7.0 | 0.00 | 0.00 | 0.00 | 51 | 1018.0 |
| 20260510181003 | 49 | 327 | 3.0 | 10.0 | 0.00 | 0.00 | 0.00 | 55 | 1017.8 |
| 20260510175004 | 50 | 6 | 3.0 | 9.0 | 0.00 | 0.00 | 0.00 | 56 | 1017.9 |
| 20260510174003 | 48 | 353 | 3.0 | 7.0 | 0.00 | 0.00 | 0.00 | 58 | 1017.8 |
| 20260510170003 | 48 | 58 | 2.0 | 8.0 | 0.00 | 0.00 | 0.00 | 54 | 1017.5 |
| 20260510165004 | 49 | 48 | 2.0 | 6.0 | 0.00 | 0.00 | 0.00 | 52 | 1017.4 |
| 20260510164003 | 49 | 21 | 3.0 | 9.0 | 0.00 | 0.00 | 0.00 | 46 | 1017.2 |
| 20260510162004 | 47 | 207 | 5.0 | 12.0 | 0.00 | 0.00 | 0.00 | 51 | 1017.3 |
| 20260510161004 | 48 | 335 | 2.0 | 5.0 | 0.00 | 0.00 | 0.00 | 50 | 1017.0 |
| 20260510155003 | 49 | 15 | 4.0 | 10.0 | 0.00 | 0.00 | 0.00 | 49 | 1017.0 |
| 20260510154003 | 48 | 324 | 3.0 | 10.0 | 0.00 | 0.00 | 0.00 | 49 | 1016.7 |
| 20260510153004 | 48 | 261 | 6.0 | 14.0 | 0.00 | 0.00 | 0.00 | 50 | 1016.6 |
| 20260510151003 | 48 | 269 | 6.0 | 15.0 | 0.00 | 0.00 | 0.00 | 51 | 1016.7 |
| 20260510150004 | 48 | 230 | 5.0 | 12.0 | 0.00 | 0.00 | 0.00 | 52 | 1016.6 |
| 20260510145004 | 46 | 274 | 5.0 | 9.0 | 0.00 | 0.00 | 0.00 | 55 | 1016.5 |
| 20260510144004 | 45 | 266 | 3.0 | 7.0 | 0.00 | 0.00 | 0.00 | 56 | 1016.7 |
| 20260510143003 | 44 | 294 | 3.0 | 10.0 | 0.00 | 0.00 | 0.00 | 59 | 1016.8 |
| 20260510142004 | 43 | 356 | 3.0 | 6.0 | 0.00 | 0.00 | 0.00 | 61 | 1016.5 |
| 20260510141004 | 42 | 326 | 2.0 | 5.0 | 0.00 | 0.00 | 0.00 | 64 | 1016.8 |
| 20260510140004 | 41 | 294 | 3.0 | 6.0 | 0.00 | 0.00 | 0.00 | 65 | 1016.6 |
| 20260510135004 | 42 | 301 | 3.0 | 6.0 | 0.00 | 0.00 | 0.00 | 65 | 1016.5 |
| 20260510133004 | 40 | 313 | 1.0 | 3.0 | 0.00 | 0.00 | 0.00 | 67 | 1016.6 |
| 20260510131004 | 40 | 339 | 3.0 | 7.0 | 0.00 | 0.00 | 0.00 | 66 | 1016.4 |
| 20260510130004 | 40 | 283 | 1.0 | 5.0 | 0.00 | 0.00 | 0.00 | 67 | 1016.3 |
| 20260510125004 | 40 | 298 | 1.0 | 3.0 | 0.00 | 0.00 | 0.00 | 67 | 1016.3 |
| 20260510121003 | 37 | 280 | 2.0 | 5.0 | 0.00 | 0.00 | 0.00 | 72 | 1016.0 |
| 20260510120004 | 33 | 53 | 0.0 | 2.0 | 0.00 | 0.00 | 0.00 | 78 | 1015.9 |
| 20260510115004 | 32 | 312 | 1.0 | 2.0 | 0.00 | 0.00 | 0.00 | 80 | 1015.8 |
| 20260510114003 | 30 | 290 | 1.0 | 2.0 | 0.00 | 0.00 | 0.00 | 83 | 1015.9 |
| 20260510113004 | 28 | 304 | 1.0 | 2.0 | 0.00 | 0.00 | 0.00 | 85 | 1015.7 |
| 20260510112004 | 27 | 344 | 1.0 | 1.0 | 0.00 | 0.00 | 0.00 | 86 | 1015.6 |
| 20260510111004 | 27 | 338 | 0.0 | 1.0 | 0.00 | 0.00 | 0.00 | 86 | 1015.6 |
| 20260510105003 | 27 | 325 | 1.0 | 2.0 | 0.00 | 0.00 | 0.00 | 86 | 1015.4 |
| 20260510104004 | 27 | 297 | 0.0 | 1.0 | 0.00 | 0.00 | 0.00 | 85 | 1015.5 |
| 20260510103004 | 27 | 318 | 0.0 | 1.0 | 0.00 | 0.00 | 0.00 | 84 | 1015.1 |
| 20260510102003 | 28 | 309 | 0.0 | 1.0 | 0.00 | 0.00 | 0.00 | 83 | 1015.1 |
| 20260510101004 | 28 | 304 | 0.0 | 2.0 | 0.00 | 0.00 | 0.00 | 82 | 1015.0 |
| 20260510094004 | 27 | 311 | 0.0 | 1.0 | 0.00 | 0.00 | 0.00 | 82 | 1014.8 |
| 20260510093004 | 28 | 270 | 1.0 | 2.0 | 0.00 | 0.00 | 0.00 | 79 | 1014.6 |
| 20260510092003 | 30 | 295 | 1.0 | 2.0 | 0.00 | 0.00 | 0.00 | 78 | 1014.7 |
| 20260510091003 | 29 | 289 | 1.0 | 2.0 | 0.00 | 0.00 | 0.00 | 78 | 1014.5 |
| 20260510085004 | 31 | 298 | 0.0 | 2.0 | 0.00 | 0.00 | 0.00 | 75 | 1014.4 |
| 20260510084003 | 32 | 308 | 1.0 | 3.0 | 0.00 | 0.00 | 0.00 | 73 | 1014.4 |
| 20260510083004 | 31 | 308 | 1.0 | 2.0 | 0.00 | 0.00 | 0.00 | 73 | 1014.2 |
| 20260510082004 | 31 | 296 | 1.0 | 2.0 | 0.00 | 0.00 | 0.00 | 75 | 1014.1 |
| 20260510080004 | 30 | 299 | 1.0 | 2.0 | 0.00 | 0.00 | 0.00 | 74 | 1014.0 |
| 20260510075003 | 31 | 335 | 1.0 | 2.0 | 0.00 | 0.00 | 0.00 | 72 | 1014.0 |
| 20260510074004 | 32 | 337 | 1.0 | 2.0 | 0.00 | 0.00 | 0.00 | 72 | 1013.7 |
| 20260510072004 | 31 | 340 | 1.0 | 2.0 | 0.00 | 0.00 | 0.00 | 71 | 1013.6 |
| 20260510071004 | 33 | 328 | 1.0 | 3.0 | 0.00 | 0.00 | 0.00 | 68 | 1013.4 |
| 20260510070004 | 32 | 277 | 1.0 | 3.0 | 0.00 | 0.00 | 0.00 | 70 | 1013.4 |
| 20260510065004 | 31 | 44 | 0.0 | 5.0 | 0.00 | 0.00 | 0.00 | 69 | 1013.5 |
| 20260510064004 | 30 | 357 | 1.0 | 2.0 | 0.00 | 0.00 | 0.00 | 74 | 1013.2 |
| 20260510063003 | 29 | 327 | 1.0 | 2.0 | 0.00 | 0.00 | 0.00 | 71 | 1013.3 |
| 20260510062004 | 29 | 291 | 0.0 | 2.0 | 0.00 | 0.00 | 0.00 | 71 | 1013.2 |
| 20260510060004 | 30 | 303 | 0.0 | 1.0 | 0.00 | 0.00 | 0.00 | 68 | 1012.9 |
| 20260510055004 | 30 | 312 | 1.0 | 2.0 | 0.00 | 0.00 | 0.00 | 68 | 1013.0 |
| 20260510054004 | 31 | 321 | 1.0 | 1.0 | 0.00 | 0.00 | 0.00 | 67 | 1012.9 |
| 20260510053004 | 30 | 327 | 0.0 | 2.0 | 0.00 | 0.00 | 0.00 | 67 | 1012.7 |
| 20260510052003 | 31 | 0 | 0.0 | 1.0 | 0.00 | 0.00 | 0.00 | 66 | 1012.7 |
| 20260510051005 | 31 | 16 | 0.0 | 2.0 | 0.00 | 0.00 | 0.00 | 65 | 1012.8 |
| 20260510050004 | 32 | 287 | 0.0 | 2.0 | 0.00 | 0.00 | 0.00 | 63 | 1012.7 |
| 20260510045004 | 32 | 310 | 0.0 | 1.0 | 0.00 | 0.00 | 0.00 | 62 | 1012.7 |
| 20260510043004 | 34 | 6 | 1.0 | 2.0 | 0.00 | 0.00 | 0.00 | 60 | 1012.7 |
| 20260510042005 | 34 | 334 | 0.0 | 1.0 | 0.00 | 0.00 | 0.00 | 58 | 1012.5 |
| 20260510041004 | 35 | 2 | 0.0 | 1.0 | 0.00 | 0.00 | 0.00 | 57 | 1012.4 |
| 20260510040004 | 36 | 340 | 0.0 | 1.0 | 0.00 | 0.00 | 0.00 | 55 | 1012.3 |
| 20260510035003 | 37 | 346 | 0.0 | 1.0 | 0.00 | 0.00 | 0.00 | 54 | 1012.4 |
| 20260510034003 | 38 | 317 | 0.0 | 2.0 | 0.00 | 0.00 | 0.00 | 52 | 1012.4 |
| 20260510032004 | 36 | 29 | 1.0 | 2.0 | 0.00 | 0.00 | 0.00 | 54 | 1012.0 |
| 20260510031004 | 36 | 16 | 1.0 | 2.0 | 0.00 | 0.00 | 0.00 | 56 | 1012.0 |
| 20260510030004 | 37 | 327 | 1.0 | 2.0 | 0.00 | 0.00 | 0.00 | 53 | 1012.0 |
| 20260510025004 | 38 | 348 | 0.0 | 2.0 | 0.00 | 0.00 | 0.00 | 52 | 1012.0 |
| 20260510024004 | 38 | 2 | 0.0 | 2.0 | 0.00 | 0.00 | 0.00 | 51 | 1011.6 |
| 20260510023004 | 39 | 44 | 0.0 | 1.0 | 0.00 | 0.00 | 0.00 | 49 | 1011.7 |
| 20260510022004 | 40 | 317 | 0.0 | 2.0 | 0.00 | 0.00 | 0.00 | 47 | 1011.7 |
| 20260510021004 | 41 | 336 | 0.0 | 1.0 | 0.00 | 0.00 | 0.00 | 46 | 1011.4 |
| 20260510020004 | 42 | 0 | 1.0 | 2.0 | 0.00 | 0.00 | 0.00 | 44 | 1011.5 |
| 20260510015004 | 43 | 28 | 1.0 | 2.0 | 0.00 | 0.00 | 0.00 | 43 | 1011.0 |
| 20260510014004 | 44 | 28 | 1.0 | 5.0 | 0.00 | 0.00 | 0.00 | 42 | 1011.1 |
| 20260510013006 | 46 | 3 | 1.0 | 7.0 | 0.00 | 0.00 | 0.00 | 40 | 1010.6 |
| 20260510012004 | 46 | 300 | 3.0 | 7.0 | 0.00 | 0.00 | 0.00 | 39 | 1010.7 |
| 20260510005004 | 48 | 51 | 2.0 | 16.0 | 0.00 | 0.00 | 0.00 | 38 | 1010.3 |
| 20260510004004 | 48 | 306 | 3.0 | 12.0 | 0.00 | 0.00 | 0.00 | 39 | 1009.9 |
| 20260510003004 | 48 | 331 | 7.0 | 16.0 | 0.00 | 0.00 | 0.00 | 38 | 1010.0 |
| 20260510002003 | 49 | 309 | 8.0 | 20.0 | 0.00 | 0.00 | 0.00 | 39 | 1009.6 |
| 20260510001004 | 50 | 352 | 6.0 | 17.0 | 0.00 | 0.00 | 0.00 | 38 | 1009.5 |
| 20260510000004 | 52 | 27 | 4.0 | 17.0 | 0.00 | 0.00 | 0.00 | 39 | 1009.5 |
| 20260509235004 | 51 | 339 | 4.0 | 10.0 | 0.00 | 0.00 | 0.00 | 40 | 1009.1 |